Location: State Camp
(41.2367°N, 77.7828°W)
Time: 10:01:05
(UTC-05:00)

Amateur Radio Satellites - All Passes

Search period start: 19 January 2017 09:31
Search period end: 20 January 2017 09:31
Location: State Camp, 41.2367°N, 77.7828°W

Satellite Date Start Highest point End Downlink Frequencies (MHz)
Time Altitude Azimuth
CUBEBUG 2 19 Jan 09:34:15 09:37:31 21° 292° (WNW) 09:40:51 437.445
DELFI C3 19 Jan 09:36:30 09:40:22 45° 99° (E) 09:44:10 145.870
AAUSAT CUBESAT 2 19 Jan 09:42:55 09:45:56 19° 293° (WNW) 09:48:55 437.432
GONETS M04 19 Jan 09:43:24 09:47:10 13° 286° (WNW) 09:50:56
JAS-2 19 Jan 09:43:48 09:48:39 37° 67° (ENE) 09:53:56 435.910
HO-68 19 Jan 09:55:17 10:00:15 21° 304° (NW) 10:05:13 435.675
PCSat 19 Jan 09:55:59 10:01:22 59° 57° (ENE) 10:06:42 145.827
SO-50 19 Jan 10:04:21 10:07:18 16° 320° (NW) 10:10:14 436.795
FUNcube-1 19 Jan 10:04:59 10:08:40 27° 291° (WNW) 10:12:25 145.935
UWE-3 19 Jan 10:06:11 10:08:51 16° 295° (WNW) 10:11:33 435.000/436.395/437.385
UNISAT 6 19 Jan 10:14:36 10:18:24 31° 263° (W) 10:22:13 437.425
QB50P1 19 Jan 10:23:00 10:26:37 29° 69° (ENE) 10:30:15 145.935-145.965
POLYITAN 1 19 Jan 10:26:36 10:30:19 32° 70° (ENE) 10:34:03 437.675
QB50P2 19 Jan 10:27:40 10:31:29 35° 71° (ENE) 10:35:20 145.880/145.840
RS-15 19 Jan 10:27:54 10:38:58 42° 253° (WSW) 10:49:40 29.354- 29.394
ZACube-1 19 Jan 10:28:10 10:30:45 16° 295° (WNW) 10:33:22 437.345
TIGRISAT 19 Jan 10:28:49 10:32:16 24° 265° (W) 10:35:44 435.000
BY70-1 19 Jan 10:41:48 10:44:45 28° 96° (E) 10:47:33 436.1900
ANTELSAT 19 Jan 10:44:44 10:47:19 16° 268° (W) 10:49:55 437.575/2403.000
POPSAT HIP 1 19 Jan 10:49:13 10:53:19 56° 74° (ENE) 10:57:26 437.405
HUMSAT D 19 Jan 10:49:53 10:54:00 47° 287° (WNW) 10:58:07 437.325/437.525
CUBEBUG 1 19 Jan 10:52:56 10:54:47 12° 90° (E) 10:56:38 437.445
DUCHIFAT 1 19 Jan 11:01:42 11:05:50 68° 74° (ENE) 11:09:59 145.980
AISAT 19 Jan 11:06:17 11:07:35 11° 90° (E) 11:08:52 437.250
NANOSAT C BR1 19 Jan 11:06:29 11:10:40 85° 76° (ENE) 11:14:52 145.865
DELFI C3 19 Jan 11:12:34 11:14:46 14° 295° (WNW) 11:16:57 145.870
ESTCUBE 1 19 Jan 11:20:15 11:24:37 45° 99° (E) 11:28:56 437.505/2401.250
JAS-2 19 Jan 11:29:28 11:33:54 27° 267° (W) 11:38:41 435.910
Oscar 19 19 Jan 11:34:19 11:37:52 19° 62° (ENE) 11:41:26 437.125/150
VELOX 1 19 Jan 11:37:48 11:41:24 24° 95° (E) 11:44:57 145.980
Gurwin Techsat 1B 19 Jan 11:40:02 11:41:47 12° 57° (ENE) 11:43:33 435.225
PCSat 19 Jan 11:40:29 11:44:16 20° 254° (WSW) 11:48:03 145.827
BUGSAT 1 19 Jan 11:41:48 11:45:50 68° 75° (ENE) 11:49:52 437.445
Cosmos 2491 19 Jan 11:58:36 12:05:25 24° 65° (ENE) 12:12:11 435.465 / 435.565
QB50P1 19 Jan 11:59:02 12:02:22 23° 265° (W) 12:05:44 145.935-145.965
POLYITAN 1 19 Jan 12:02:59 12:06:09 21° 266° (W) 12:09:20 437.675
QB50P2 19 Jan 12:04:23 12:07:23 19° 267° (W) 12:10:24 145.880/145.840
50 SAT 19 Jan 12:09:24 12:12:47 39° 99° (E) 12:16:06 437.505
BY70-1 19 Jan 12:12:52 12:14:49 15° 294° (WNW) 12:16:42 436.1900
DX 1 19 Jan 12:14:07 12:17:52 28° 96° (E) 12:21:35 434.975-435.025
SPROUT 19 Jan 12:15:50 12:19:57 47° 99° (E) 12:24:03 437.525
UKube-1 19 Jan 12:16:08 12:19:28 21° 95° (E) 12:22:46 .
AO-7 19 Jan 12:18:46 12:21:27 12° 42° (NE) 12:24:08 29.400- 29.500
CUSAT 1 19 Jan 12:24:02 12:28:01 14° 57° (ENE) 12:31:57 437.405
CUBEBUG 1 19 Jan 12:27:10 12:31:25 56° 286° (WNW) 12:35:38 437.445
POPSAT HIP 1 19 Jan 12:27:51 12:29:26 12° 269° (W) 12:31:01 437.405
AISAT 19 Jan 12:40:06 12:44:28 65° 285° (WNW) 12:48:47 437.250
ESTCUBE 1 19 Jan 12:57:57 13:01:03 18° 295° (WNW) 13:04:10 437.505/2401.250
Oscar 19 19 Jan 13:11:37 13:16:44 57° 260° (W) 13:21:52 437.125/150
VELOX 1 19 Jan 13:13:59 13:17:50 30° 291° (WNW) 13:21:40 145.980
Gurwin Techsat 1B 19 Jan 13:15:34 13:20:53 83° 75° (ENE) 13:26:13 435.225
50 SAT 19 Jan 13:43:57 13:45:37 13° 295° (WNW) 13:47:17 437.505
TISAT 1 19 Jan 13:48:07 13:52:17 72° 102° (ESE) 13:56:26 437.305
DX 1 19 Jan 13:50:21 13:53:57 26° 292° (WNW) 13:57:31 434.975-435.025
UKube-1 19 Jan 13:51:41 13:55:33 33° 291° (WNW) 13:59:23 .
ITAMSAT 1 19 Jan 13:52:11 13:56:55 38° 69° (ENE) 14:01:41 435.822/435.867
SPROUT 19 Jan 13:52:57 13:55:29 16° 295° (WNW) 13:58:01 437.525
BEESAT 19 Jan 13:54:11 13:57:12 16° 92° (E) 14:00:11 436.000
Cosmos 2491 19 Jan 13:54:23 14:03:08 75° 266° (W) 14:11:54 435.465 / 435.565
SWISSCUBE 19 Jan 13:55:22 13:58:47 19° 93° (E) 14:02:10 437.505
YUBILEINY 19 Jan 14:00:29 14:08:58 55° 90° (E) 14:17:30 435.215
CUSAT 1 19 Jan 14:03:32 14:11:31 66° 77° (ENE) 14:18:57 437.405
AO-7 19 Jan 14:04:18 14:12:15 51° 63° (ENE) 14:20:14 29.400- 29.500
AO-85 19 Jan 14:04:45 14:09:28 63° 119° (ESE) 14:13:50 145.980
Cosmos 2504 19 Jan 14:05:51 14:13:17 33° 85° (E) 14:20:21 435.465 / 435.565
AIST 1 19 Jan 14:17:55 14:22:17 79° 276° (W) 14:26:40
DANDE 19 Jan 14:40:53 14:48:20 50° 75° (ENE) 14:56:22 436.750
ITUPSAT 1 19 Jan 14:55:02 14:59:50 67° 102° (ESE) 15:04:37 437.325
Gurwin Techsat 1B 19 Jan 14:59:37 15:01:27 12° 271° (W) 15:03:17 435.225
SO-50 19 Jan 15:14:30 15:16:13 12° 35° (NE) 15:17:56 436.795
BRITE-PL 19 Jan 15:22:22 15:27:03 27° 66° (ENE) 15:31:43 437.365/2234.400
TISAT 1 19 Jan 15:26:28 15:27:19 11° 298° (WNW) 15:28:10 437.305
BEESAT 19 Jan 15:30:36 15:35:16 53° 288° (WNW) 15:39:54 436.000
ITAMSAT 1 19 Jan 15:32:11 15:36:27 26° 265° (W) 15:40:45 435.822/435.867
SWISSCUBE 19 Jan 15:32:12 15:36:46 45° 289° (WNW) 15:41:20 437.505
GOMX 1 19 Jan 15:34:25 15:37:11 14° 62° (ENE) 15:39:53 467.674
MOZHAYETS 4 19 Jan 15:36:02 15:40:37 57° 100° (E) 15:45:11
CUSAT 1 19 Jan 15:46:25 15:52:48 28° 276° (W) 15:58:53 437.405
AO-85 19 Jan 15:47:03 15:50:12 18° 316° (NW) 15:53:13 145.980
Cosmos 2491 19 Jan 15:54:34 15:58:20 14° 286° (WNW) 16:02:09 435.465 / 435.565
NOAA 15 19 Jan 15:54:36 15:55:14 10° 56° (NE) 15:55:51 137.62
AO-7 19 Jan 15:57:36 16:05:09 37° 262° (W) 16:12:48 29.400- 29.500
Cosmos 2504 19 Jan 15:57:48 16:06:17 54° 283° (WNW) 16:14:19 435.465 / 435.565
YUBILEINY 19 Jan 15:58:24 16:06:07 33° 290° (WNW) 16:13:56 435.215
BEESAT 3 19 Jan 16:00:48 16:04:08 28° 114° (ESE) 16:07:31 437.485
M-CUBED/EXP-1 PRIME 19 Jan 16:01:55 16:04:53 29° 102° (ESE) 16:07:46 437.505
O/OREOS (USA 219) 19 Jan 16:06:03 16:10:26 49° 64° (ENE) 16:14:48 437.305
CUBESAT XI-V 19 Jan 16:19:16 16:23:07 25° 94° (E) 16:26:57 437.345
DOVE 4 19 Jan 16:19:18 16:21:51 14° 64° (ENE) 16:24:21 437.250
LilacSat-2 19 Jan 16:19:27 16:20:08 10° 63° (ENE) 16:20:48 437.200
DANDE 19 Jan 16:23:52 16:30:53 39° 270° (W) 16:38:24 436.750
KKS-1 19 Jan 16:23:53 16:28:15 56° 101° (E) 16:32:35 437.445
HORYU 2 19 Jan 16:31:37 16:35:52 51° 72° (ENE) 16:40:09 437.375
ITUPSAT 1 19 Jan 16:34:32 16:37:06 15° 299° (WNW) 16:39:41 437.325
CUTE-I 19 Jan 16:34:40 16:38:46 23° 64° (ENE) 16:42:52 437.470
AUBIESAT-1 19 Jan 16:39:13 16:42:36 77° 107° (ESE) 16:45:53 437.475
BEESAT 2 19 Jan 16:42:54 16:46:28 34° 115° (ESE) 16:50:06 435.950
HO-68 19 Jan 16:52:21 16:54:56 12° 49° (NE) 16:57:32 435.675
SO-50 19 Jan 16:53:02 16:57:32 70° 56° (NE) 17:01:59 436.795
BRITE-PL 19 Jan 16:59:48 17:05:13 45° 262° (W) 17:10:39 437.365/2234.400
GOMX 1 19 Jan 17:09:10 17:14:38 81° 259° (WSW) 17:19:52 467.674
NOAA 18 19 Jan 17:12:36 17:17:18 30° 65° (ENE) 17:21:59 137.9125
MOZHAYETS 4 19 Jan 17:14:34 17:17:18 16° 297° (WNW) 17:20:01
Cubesat XI-IV 19 Jan 17:16:13 17:21:21 53° 71° (ENE) 17:26:31 437.490
STARS 19 Jan 17:20:05 17:24:27 78° 284° (WNW) 17:28:48 437.465
NOAA 15 19 Jan 17:28:47 17:34:03 74° 73° (ENE) 17:39:22 137.62
M-CUBED/EXP-1 PRIME 19 Jan 17:37:10 17:39:09 15° 300° (WNW) 17:41:06 437.505
BEESAT 3 19 Jan 17:38:23 17:41:42 26° 312° (NW) 17:45:05 437.485
O/OREOS (USA 219) 19 Jan 17:46:44 17:49:23 16° 261° (W) 17:52:03 437.305
LilacSat-2 19 Jan 17:50:11 17:53:53 58° 260° (W) 17:57:39 437.200
DOVE 4 19 Jan 17:54:00 17:59:02 70° 259° (WSW) 18:03:49 437.250
CINEMA 3 19 Jan 17:54:11 17:57:54 27° 69° (ENE) 18:01:30 145.822/145.860
CUBESAT XI-V 19 Jan 17:56:19 18:00:31 33° 291° (WNW) 18:04:40 437.345
CUTE 1.7 + AOD 2 19 Jan 17:56:21 17:58:54 16° 65° (ENE) 18:01:28 437.475
KKS-1 19 Jan 18:01:55 18:04:20 15° 297° (WNW) 18:06:46 437.445
HORYU 2 19 Jan 18:10:17 18:12:42 14° 268° (W) 18:15:08 437.375
CUTE-I 19 Jan 18:13:24 18:18:29 47° 261° (W) 18:23:37 437.470
BEESAT 2 19 Jan 18:21:08 18:24:20 23° 313° (NW) 18:27:33 435.950
Cosmos 2499 19 Jan 18:23:31 18:29:22 21° 82° (E) 18:34:58 435.465 / 435.565
CANX-2 19 Jan 18:23:49 18:27:41 35° 71° (ENE) 18:31:35 2200.000
HO-68 19 Jan 18:34:10 18:41:13 61° 69° (ENE) 18:48:18 435.675
AIST 2 19 Jan 18:35:01 18:35:39 10° 107° (ESE) 18:36:18 435.215
SO-50 19 Jan 18:35:33 18:37:23 12° 252° (WSW) 18:39:12 436.795
SEEDS 19 Jan 18:37:15 18:40:53 28° 69° (ENE) 18:44:31 437.485
COMPASS 1 19 Jan 18:44:53 18:48:12 23° 68° (ENE) 18:51:32 437.405
GONETS M04 19 Jan 18:49:28 18:56:19 27° 81° (E) 19:03:11
NOAA 18 19 Jan 18:52:43 18:57:48 38° 262° (W) 19:02:54 137.9125
CUBEBUG 2 19 Jan 18:55:35 18:59:08 27° 69° (ENE) 19:02:39 437.445
AAUSAT CUBESAT 2 19 Jan 18:57:08 19:00:29 24° 68° (ENE) 19:03:52 437.432
Cubesat XI-IV 19 Jan 18:57:58 19:01:43 19° 268° (W) 19:05:30 437.490
NOAA 15 19 Jan 19:11:47 19:14:22 14° 270° (W) 19:16:58 137.62
STRAND 1 19 Jan 19:17:10 19:22:09 50° 100° (E) 19:27:08 437.568
FUNcube-1 19 Jan 19:24:53 19:27:55 20° 67° (ENE) 19:30:58 145.935
UWE-3 19 Jan 19:25:40 19:29:29 37° 71° (ENE) 19:33:18 435.000/436.395/437.385
CUTE 1.7 + AOD 2 19 Jan 19:30:15 19:34:20 47° 261° (W) 19:38:28 437.475
CINEMA 3 19 Jan 19:31:12 19:34:58 27° 264° (W) 19:38:39 145.822/145.860
ZACube-1 19 Jan 19:46:31 19:50:19 37° 71° (ENE) 19:54:10 437.345
CANX-2 19 Jan 20:00:32 20:03:37 19° 267° (W) 20:06:44 2200.000
HUMSAT D 19 Jan 20:08:51 20:09:36 10° 62° (ENE) 20:10:23 437.325/437.525
AIST 2 19 Jan 20:09:23 20:13:29 72° 303° (WNW) 20:17:40 435.215
SEEDS 19 Jan 20:13:06 20:16:32 24° 266° (W) 20:19:59 437.485
Cosmos 2499 19 Jan 20:13:13 20:21:44 76° 279° (W) 20:29:38 435.465 / 435.565
COMPASS 1 19 Jan 20:19:55 20:23:35 29° 264° (W) 20:27:19 437.405
DELFI C3 19 Jan 20:22:09 20:25:30 26° 69° (ENE) 20:28:52 145.870
HO-68 19 Jan 20:23:36 20:29:21 26° 266° (W) 20:35:08 435.675
Oscar 11 19 Jan 20:24:00 20:28:19 87° 77° (ENE) 20:32:40 145.826/435.025
PRISM 19 Jan 20:24:19 20:25:20 11° 90° (E) 20:26:21 437.425
AAUSAT CUBESAT 2 19 Jan 20:32:13 20:35:49 28° 264° (W) 20:39:27 437.432
CUBEBUG 2 19 Jan 20:32:23 20:35:44 23° 265° (W) 20:39:05 437.445
GONETS M04 19 Jan 20:43:47 20:52:23 65° 281° (W) 21:01:07
STRAND 1 19 Jan 20:57:11 21:00:58 21° 296° (WNW) 21:04:44 437.568
FUNcube-1 19 Jan 21:00:14 21:03:56 32° 263° (W) 21:07:41 145.935
UWE-3 19 Jan 21:03:20 21:06:05 17° 267° (W) 21:08:52 435.000/436.395/437.385
ZACube-1 19 Jan 21:24:02 21:26:45 17° 267° (W) 21:29:30 437.345
HUMSAT D 19 Jan 21:40:32 21:44:36 70° 259° (W) 21:48:45 437.325/437.525
CUBEBUG 1 19 Jan 21:49:34 21:51:12 12° 62° (ENE) 21:52:49 437.445
AIST 2 19 Jan 21:51:40 21:52:44 11° 323° (NW) 21:53:49 435.215
PRISM 19 Jan 21:56:56 22:01:00 59° 287° (WNW) 22:05:01 437.425
DELFI C3 19 Jan 21:57:00 22:00:14 23° 265° (W) 22:03:31 145.870
AISAT 19 Jan 22:04:02 22:05:28 11° 61° (ENE) 22:06:54 437.250
UNISAT 6 19 Jan 22:05:14 22:09:33 49° 100° (E) 22:13:56 437.425
Cosmos 2499 19 Jan 22:11:55 22:16:07 15° 298° (WNW) 22:20:12 435.465 / 435.565
TIGRISAT 19 Jan 22:18:47 22:23:11 65° 101° (E) 22:27:40 435.000
ESTCUBE 1 19 Jan 22:19:30 22:23:45 41° 71° (ENE) 22:28:00 437.505/2401.250
BY70-1 19 Jan 22:26:05 22:29:01 76° 256° (WSW) 22:32:15 436.1900
ANTELSAT 19 Jan 22:33:48 22:38:15 82° 284° (WNW) 22:42:47 437.575/2403.000
VELOX 1 19 Jan 22:35:08 22:38:36 23° 67° (ENE) 22:42:04 145.980
ISS 19 Jan 22:35:24 22:38:38 67° 142° (SE) 22:41:52 145.825
JAS-2 19 Jan 22:35:32 22:42:19 42° 97° (E) 22:49:33 435.910
AO-85 19 Jan 22:36:23 22:40:12 46° 53° (NE) 22:43:57 145.980
RS-15 19 Jan 22:38:26 22:48:46 38° 105° (ESE) 22:59:25 29.354- 29.394
50 SAT 19 Jan 22:44:48 22:47:10 17° 67° (ENE) 22:49:33 437.505
GONETS M04 19 Jan 22:47:49 22:51:13 13° 304° (NW) 22:54:39
DUCHIFAT 1 19 Jan 22:48:27 22:49:11 10° 90° (E) 22:49:55 145.980
NANOSAT C BR1 19 Jan 22:52:21 22:54:25 13° 91° (E) 22:56:28 145.865
SPROUT 19 Jan 23:09:06 23:12:59 35° 71° (ENE) 23:16:53 437.525
DX 1 19 Jan 23:09:39 23:13:14 25° 67° (ENE) 23:16:50 434.975-435.025
UKube-1 19 Jan 23:10:52 23:13:58 19° 65° (ENE) 23:17:03 .
CUBEBUG 1 19 Jan 23:22:28 23:26:53 71° 259° (WSW) 23:31:17 437.445
AISAT 19 Jan 23:36:51 23:41:18 75° 257° (WSW) 23:45:46 437.250
QB50P1 19 Jan 23:42:31 23:46:39 54° 100° (E) 23:50:47 145.935-145.965
UNISAT 6 19 Jan 23:43:07 23:45:52 16° 295° (WNW) 23:48:41 437.425
POLYITAN 1 19 Jan 23:46:24 23:50:35 60° 101° (E) 23:54:47 437.675
QB50P2 19 Jan 23:47:36 23:51:50 67° 102° (ESE) 23:56:01 145.880/145.840
TIGRISAT 19 Jan 23:57:21 23:59:21 13° 297° (WNW) 00:01:22 435.000
ESTCUBE 1 19 Jan 23:57:29 00:00:42 19° 267° (W) 00:03:57 437.505/2401.250
POPSAT HIP 1 20 Jan 00:09:19 00:13:33 76° 284° (WNW) 00:17:46 437.405
VELOX 1 20 Jan 00:10:48 00:14:51 34° 262° (W) 00:18:55 145.980
YUBILEINY 20 Jan 00:11:08 00:18:21 27° 67° (ENE) 00:25:30 435.215
ISS 20 Jan 00:12:44 00:15:22 22° 340° (NNW) 00:18:00 145.825
50 SAT 20 Jan 00:17:01 00:20:09 29° 263° (W) 00:23:20 437.505
BEESAT 3 20 Jan 00:17:36 00:20:35 20° 45° (NE) 00:23:34 437.485
AO-85 20 Jan 00:18:06 00:20:10 14° 250° (WSW) 00:22:13 145.980
JAS-2 20 Jan 00:20:40 00:27:14 42° 292° (WNW) 00:34:19 435.910
DUCHIFAT 1 20 Jan 00:21:06 00:25:15 64° 286° (WNW) 00:29:24 145.980
AIST 1 20 Jan 00:25:26 00:28:56 24° 74° (ENE) 00:32:23
NANOSAT C BR1 20 Jan 00:26:20 00:30:25 51° 287° (WNW) 00:34:29 145.865
PCSat 20 Jan 00:37:26 00:42:40 54° 114° (ESE) 00:47:57 145.827
TISAT 1 20 Jan 00:39:21 00:43:23 51° 73° (ENE) 00:47:27 437.305
DX 1 20 Jan 00:45:29 00:49:18 29° 263° (W) 00:53:08 434.975-435.025
UKube-1 20 Jan 00:45:40 00:49:43 38° 262° (W) 00:53:47 .
SPROUT 20 Jan 00:45:56 00:49:00 19° 267° (W) 00:52:05 437.525
RS-15 20 Jan 00:48:36 01:00:27 68° 308° (NW) 01:12:50 29.354- 29.394
BUGSAT 1 20 Jan 00:58:34 01:02:35 67° 284° (WNW) 01:06:36 437.445
BEESAT 20 Jan 01:00:35 01:03:59 20° 64° (ENE) 01:07:25 436.000
BEESAT 2 20 Jan 01:00:37 01:03:56 23° 47° (NE) 01:07:13 435.950
Cosmos 2491 20 Jan 01:00:49 01:07:38 27° 82° (E) 01:14:28 435.465 / 435.565
SWISSCUBE 20 Jan 01:01:49 01:05:30 23° 65° (ENE) 01:09:12 437.505
QB50P1 20 Jan 01:19:48 01:21:58 14° 296° (WNW) 01:24:08 145.935-145.965
Oscar 19 20 Jan 01:23:08 01:28:11 50° 100° (E) 01:33:09 437.125/150
POLYITAN 1 20 Jan 01:24:02 01:25:52 13° 297° (WNW) 01:27:42 437.675
QB50P2 20 Jan 01:25:39 01:27:03 11° 298° (WNW) 01:28:27 145.880/145.840
Gurwin Techsat 1B 20 Jan 01:32:07 01:36:53 33° 97° (E) 01:41:37 435.225
Cosmos 2504 20 Jan 01:50:48 01:58:06 55° 77° (ENE) 02:05:05 435.465 / 435.565
ISS 20 Jan 01:51:05 01:52:44 13° 360° (N) 01:54:24 145.825
AUBIESAT-1 20 Jan 01:53:58 01:54:19 10° 58° (ENE) 01:54:39 437.475
BEESAT 3 20 Jan 01:54:35 01:58:23 43° 243° (WSW) 02:02:10 437.485
ITUPSAT 1 20 Jan 02:01:32 02:06:17 78° 74° (ENE) 02:11:04 437.325
AIST 1 20 Jan 02:02:54 02:06:27 26° 271° (W) 02:10:00
ITAMSAT 1 20 Jan 02:06:38 02:08:58 13° 90° (E) 02:11:18 435.822/435.867
YUBILEINY 20 Jan 02:07:08 02:15:51 67° 268° (W) 02:24:30 435.215
AO-7 20 Jan 02:08:31 02:12:23 14° 88° (E) 02:16:14 29.400- 29.500
TISAT 1 20 Jan 02:17:23 02:19:19 13° 269° (W) 02:21:15 437.305
PCSat 20 Jan 02:21:58 02:26:22 25° 313° (NW) 02:30:49 145.827
BEESAT 20 Jan 02:36:53 02:41:26 45° 261° (W) 02:46:01 436.000
MOZHAYETS 4 20 Jan 02:37:37 02:42:03 53° 73° (ENE) 02:46:33
BEESAT 2 20 Jan 02:38:05 02:41:47 34° 245° (WSW) 02:45:26 435.950
PHONESAT 2.4 20 Jan 02:38:12 02:40:17 32° 163° (SSE) 02:42:25 2401.200-2431.200
SWISSCUBE 20 Jan 02:38:37 02:43:02 39° 262° (W) 02:47:31 437.505
M-CUBED/EXP-1 PRIME 20 Jan 02:46:49 02:51:02 47° 68° (ENE) 02:55:00 437.505
AIST 2 20 Jan 02:54:21 02:55:36 11° 37° (NE) 02:56:50 435.215
Cosmos 2491 20 Jan 02:55:06 03:03:44 65° 281° (WNW) 03:12:25 435.465 / 435.565
Oscar 19 20 Jan 03:03:19 03:07:06 21° 297° (WNW) 03:10:52 437.125/150
CUSAT 1 20 Jan 03:04:40 03:09:30 56° 93° (E) 03:15:50 437.405
RS-15 20 Jan 03:05:50 03:15:53 28° 337° (NNW) 03:26:07 29.354- 29.394
Gurwin Techsat 1B 20 Jan 03:12:05 03:16:45 32° 293° (WNW) 03:21:24 435.225
KKS-1 20 Jan 03:21:37 03:25:55 51° 73° (ENE) 03:30:15 437.445
CUBESAT XI-V 20 Jan 03:22:30 03:26:19 25° 67° (ENE) 03:30:10 437.345
AUBIESAT-1 20 Jan 03:23:52 03:28:12 83° 251° (WSW) 03:32:16 437.475
ISS 20 Jan 03:27:33 03:30:09 21° 20° (NNE) 03:32:44 145.825
ITUPSAT 1 20 Jan 03:43:34 03:44:39 11° 271° (W) 03:45:45 437.325
ITAMSAT 1 20 Jan 03:43:45 03:48:58 75° 286° (WNW) 03:54:10 435.822/435.867
Cosmos 2504 20 Jan 03:45:08 03:50:53 25° 277° (W) 03:56:29 435.465 / 435.565
DANDE 20 Jan 03:50:50 03:54:14 33° 89° (E) 03:58:38 436.750
AO-7 20 Jan 03:58:01 04:06:26 76° 106° (ESE) 04:14:45 29.400- 29.500
YUBILEINY 20 Jan 04:08:20 04:10:48 11° 288° (WNW) 04:13:17 435.215
PHONESAT 2.4 20 Jan 04:11:58 04:14:15 75° 178° (S) 04:16:32 2401.200-2431.200
STARS 20 Jan 04:16:14 04:20:37 89° 256° (WSW) 04:25:01 437.465
MOZHAYETS 4 20 Jan 04:16:57 04:19:32 15° 269° (W) 04:22:08
M-CUBED/EXP-1 PRIME 20 Jan 04:22:52 04:25:36 16° 261° (W) 04:28:16 437.505
AIST 2 20 Jan 04:30:36 04:34:50 72° 56° (NE) 04:39:04 435.215
CUSAT 1 20 Jan 04:48:02 04:52:07 21° 298° (WNW) 04:57:00 437.405
Cosmos 2491 20 Jan 04:59:07 05:02:33 13° 304° (NW) 05:05:59 435.465 / 435.565
CUBESAT XI-V 20 Jan 04:59:16 05:03:31 34° 263° (W) 05:07:49 437.345
GONETS M04 20 Jan 05:00:10 05:03:51 13° 56° (NE) 05:07:31
KKS-1 20 Jan 05:00:16 05:02:46 15° 268° (W) 05:05:16 437.445
ISS 20 Jan 05:03:39 05:06:54 72° 219° (SW) 05:10:07 145.825
BRITE-PL 20 Jan 05:05:14 05:10:09 65° 101° (E) 05:14:38 437.365/2234.400
GOMX 1 20 Jan 05:12:11 05:15:57 27° 94° (E) 05:19:34 467.674
LilacSat-2 20 Jan 05:24:31 05:26:45 15° 92° (E) 05:28:58 437.200
RS-15 20 Jan 05:24:32 05:34:07 25° 13° (NNE) 05:43:37 29.354- 29.394
ITAMSAT 1 20 Jan 05:26:59 05:27:31 10° 304° (WNW) 05:28:03 435.822/435.867
Cubesat XI-IV 20 Jan 05:34:08 05:38:07 21° 93° (E) 05:42:04 437.490
DANDE 20 Jan 05:34:21 05:37:16 19° 298° (WNW) 05:40:47 436.750
NOAA 18 20 Jan 05:36:49 05:38:17 11° 89° (E) 05:39:43 137.9125
NOAA 15 20 Jan 05:44:27 05:48:57 27° 95° (E) 05:53:25 137.62
PHONESAT 2.4 20 Jan 05:46:03 05:48:14 39° 195° (SSW) 05:50:25 2401.200-2431.200
AO-7 20 Jan 05:51:51 05:58:24 27° 306° (NW) 06:04:56 29.400- 29.500
DOVE 4 20 Jan 05:53:30 05:57:07 28° 96° (E) 06:00:41 437.250
HORYU 2 20 Jan 05:58:33 06:03:01 79° 284° (WNW) 06:07:28 437.375
Cosmos 2499 20 Jan 06:05:12 06:11:42 35° 73° (ENE) 06:18:03 435.465 / 435.565
AIST 2 20 Jan 06:11:32 06:12:42 11° 253° (WSW) 06:13:52 435.215
O/OREOS (USA 219) 20 Jan 06:18:08 06:22:31 58° 109° (ESE) 06:26:56 437.305
CUTE-I 20 Jan 06:30:02 06:35:22 70° 102° (ESE) 06:40:42 437.470
STRAND 1 20 Jan 06:32:55 06:37:58 71° 74° (ENE) 06:43:03 437.568
BRITE-PL 20 Jan 06:45:22 06:47:56 14° 300° (WNW) 06:50:24 437.365/2234.400
GOMX 1 20 Jan 06:50:19 06:53:59 25° 293° (WNW) 06:57:28 467.674
GONETS M04 20 Jan 06:53:51 07:02:39 65° 79° (E) 07:11:25
LilacSat-2 20 Jan 06:57:34 07:01:11 38° 287° (WNW) 07:04:48 437.200
SO-50 20 Jan 07:07:49 07:11:30 23° 112° (ESE) 07:15:10 436.795
Cubesat XI-IV 20 Jan 07:13:17 07:18:25 49° 289° (WNW) 07:23:33 437.490
NOAA 18 20 Jan 07:14:08 07:19:38 90° 249° (WSW) 07:25:05 137.9125
CUTE 1.7 + AOD 2 20 Jan 07:15:13 07:18:58 28° 96° (E) 07:22:40 437.475
NOAA 15 20 Jan 07:23:53 07:28:46 38° 292° (WNW) 07:33:37 137.62
CINEMA 3 20 Jan 07:24:35 07:28:45 66° 101° (ESE) 07:33:01 145.822/145.860
DOVE 4 20 Jan 07:31:25 07:34:43 23° 292° (WNW) 07:37:58 437.250
RS-15 20 Jan 07:38:35 07:50:36 52° 45° (NE) 08:02:12 29.354- 29.394
CANX-2 20 Jan 07:43:58 07:48:17 72° 100° (E) 07:52:34 2200.000
HO-68 20 Jan 07:49:17 07:56:26 64° 103° (ESE) 08:03:31 435.675
SEEDS 20 Jan 07:55:52 08:00:04 55° 100° (E) 08:04:13 437.485
Cosmos 2499 20 Jan 07:58:20 08:04:49 39° 272° (W) 08:11:12 435.465 / 435.565
O/OREOS (USA 219) 20 Jan 07:59:40 08:02:20 15° 307° (NW) 08:04:59 437.305
COMPASS 1 20 Jan 08:02:03 08:06:04 41° 98° (E) 08:10:01 437.405
CUTE-I 20 Jan 08:11:36 08:14:49 16° 299° (WNW) 08:18:03 437.470
Oscar 11 20 Jan 08:12:21 08:15:05 16° 92° (E) 08:17:48 145.826/435.025
AAUSAT CUBESAT 2 20 Jan 08:13:42 08:17:42 42° 99° (E) 08:21:39 437.432
STRAND 1 20 Jan 08:15:15 08:17:39 13° 270° (W) 08:20:03 437.568
CUBEBUG 2 20 Jan 08:21:31 08:25:50 66° 101° (E) 08:30:17 437.445
PRISM 20 Jan 08:45:35 08:49:45 87° 260° (W) 08:53:57 437.425
SO-50 20 Jan 08:47:13 08:51:42 43° 308° (NW) 08:56:10 436.795
FUNcube-1 20 Jan 08:47:16 08:51:27 43° 99° (E) 08:55:42 145.935
UWE-3 20 Jan 08:50:36 08:54:59 87° 106° (ESE) 08:59:28 435.000/436.395/437.385
CUTE 1.7 + AOD 2 20 Jan 08:51:10 08:54:40 25° 292° (WNW) 08:58:10 437.475
JAS-2 20 Jan 08:51:33 08:54:21 14° 56° (NE) 08:57:15 435.910
GONETS M04 20 Jan 08:51:46 08:58:43 27° 278° (W) 09:05:42
NOAA 18 20 Jan 08:57:02 08:59:29 13° 303° (WNW) 09:01:57 137.9125
CINEMA 3 20 Jan 09:04:07 09:05:22 11° 297° (WNW) 09:06:39 145.822/145.860
UNISAT 6 20 Jan 09:04:08 09:08:08 41° 71° (ENE) 09:12:09 437.425
ZACube-1 20 Jan 09:10:03 09:14:27 85° 102° (ESE) 09:18:55 437.345
TIGRISAT 20 Jan 09:17:25 09:21:33 54° 73° (ENE) 09:25:43 435.000
CANX-2 20 Jan 09:22:16 09:23:31 11° 298° (WNW) 09:24:46 2200.000
HUMSAT D 20 Jan 09:24:28 09:27:31 19° 93° (E) 09:30:34 437.325/437.525
